TimeEDT,TemperatureF,Dew PointF,Humidity,Sea Level PressureIn,VisibilityMPH,Wind Direction,Wind SpeedMPH,Gust SpeedMPH,PrecipitationIn,Events,Conditions,WindDirDegrees,DateUTC
12:55 AM,45.3,33.6,64,29.67,10.0,West,3.5,-,N/A,,Clear,270,2012-11-01 04:55:00
1:55 AM,41.2,34.7,78,29.67,10.0,SW,3.5,-,N/A,,Clear,230,2012-11-01 05:55:00
2:55 AM,41.4,34.7,77,29.67,10.0,SW,3.5,-,N/A,,Partly Cloudy,230,2012-11-01 06:55:00
3:55 AM,42.4,35.2,76,29.66,10.0,WSW,5.8,-,N/A,,Mostly Cloudy,240,2012-11-01 07:55:00
4:55 AM,42.4,36.7,80,29.67,10.0,SW,3.5,-,N/A,,Overcast,220,2012-11-01 08:55:00
5:55 AM,41.7,36.0,80,29.67,10.0,SW,5.8,-,N/A,,Mostly Cloudy,230,2012-11-01 09:55:00
6:55 AM,42.6,35.4,76,29.68,10.0,West,5.8,-,N/A,,Mostly Cloudy,260,2012-11-01 10:55:00
7:55 AM,43.0,34.9,73,29.69,10.0,WSW,5.8,-,N/A,,Scattered Clouds,250,2012-11-01 11:55:00
8:55 AM,47.8,35.8,63,29.70,10.0,SW,3.5,-,N/A,,Scattered Clouds,230,2012-11-01 12:55:00
9:03 AM,48.2,35.6,62,29.70,10.0,SW,3.5,-,N/A,,Light Drizzle,230,2012-11-01 13:03:00
9:20 AM,48.2,35.6,62,29.71,10.0,West,3.5,-,N/A,,Partly Cloudy,260,2012-11-01 13:20:00
9:55 AM,49.1,34.0,56,29.71,10.0,West,6.9,-,0.00,,Partly Cloudy,280,2012-11-01 13:55:00
10:55 AM,49.3,33.6,55,29.72,10.0,WNW,11.5,-,N/A,,Partly Cloudy,290,2012-11-01 14:55:00
11:55 AM,49.1,34.2,56,29.73,10.0,West,13.8,-,N/A,,Partly Cloudy,260,2012-11-01 15:55:00
12:14 PM,48.2,33.8,58,29.72,10.0,West,13.8,-,N/A,,Light Drizzle,270,2012-11-01 16:14:00
12:48 PM,50.0,33.8,54,29.71,10.0,West,15.0,19.6,N/A,,Light Drizzle,260,2012-11-01 16:48:00
12:55 PM,49.1,33.8,56,29.71,10.0,West,12.7,19.6,0.00,,Light Drizzle,260,2012-11-01 16:55:00
12:59 PM,50.0,33.8,54,29.71,10.0,West,10.4,-,N/A,,Partly Cloudy,270,2012-11-01 16:59:00
1:18 PM,50.0,33.8,54,29.70,10.0,West,9.2,-,N/A,,Light Drizzle,260,2012-11-01 17:18:00
1:41 PM,48.2,35.6,62,29.70,10.0,West,10.4,-,N/A,,Clear,270,2012-11-01 17:41:00
1:55 PM,49.1,35.4,59,29.70,10.0,WSW,9.2,-,0.00,,Clear,250,2012-11-01 17:55:00
2:55 PM,49.5,36.9,62,29.69,10.0,WSW,5.8,-,N/A,,Clear,240,2012-11-01 18:55:00
3:55 PM,50.2,34.7,55,29.69,10.0,West,9.2,-,N/A,,Scattered Clouds,280,2012-11-01 19:55:00
4:55 PM,50.5,35.1,55,29.69,10.0,West,10.4,-,N/A,,Scattered Clouds,270,2012-11-01 20:55:00
5:55 PM,50.0,35.1,57,29.70,10.0,NW,9.2,-,N/A,,Mostly Cloudy,310,2012-11-01 21:55:00
6:55 PM,49.3,35.2,58,29.72,10.0,WNW,6.9,-,N/A,,Mostly Cloudy,290,2012-11-01 22:55:00
7:55 PM,48.7,34.9,59,29.73,10.0,WNW,8.1,-,N/A,,Overcast,290,2012-11-01 23:55:00
8:27 PM,48.2,33.8,58,29.74,10.0,WNW,9.2,-,N/A,,Light Drizzle,290,2012-11-02 00:27:00
8:36 PM,48.2,33.8,58,29.74,10.0,WNW,11.5,-,N/A,,Scattered Clouds,300,2012-11-02 00:36:00
8:55 PM,48.4,34.0,58,29.74,10.0,WNW,11.5,-,0.00,,Scattered Clouds,300,2012-11-02 00:55:00
9:55 PM,47.8,34.3,60,29.75,10.0,West,8.1,-,N/A,,Overcast,280,2012-11-02 01:55:00
10:31 PM,48.2,33.8,58,29.76,10.0,West,11.5,-,N/A,,Light Drizzle,280,2012-11-02 02:31:00
10:40 PM,48.2,33.8,58,29.76,10.0,West,9.2,-,N/A,,Scattered Clouds,280,2012-11-02 02:40:00
10:55 PM,47.8,33.4,57,29.76,10.0,West,9.2,-,0.00,,Mostly Cloudy,280,2012-11-02 02:55:00
11:55 PM,46.4,32.9,59,29.76,10.0,West,6.9,-,N/A,,Partly Cloudy,280,2012-11-02 03:55:00